Terminal Aerodrome Forecast
Issued by NWS Cleveland, OH

Home | Current Version | Previous Version | Graphics & Text | Print | Product List | Glossary On
Versions: 1 2 3 4 5 6 7 8 9 10 11 12 13 14 15 16 17 18 19 20 21 22 23 24 25 26
000
FTUS41 KCLE 251700
TAFERI
TAF
KERI 251724Z 2518/2618 19018G26KT P6SM VCSH SCT025 OVC060
      TEMPO 2518/2522 BKN025
     FM260000 23009KT P6SM SCT030 BKN250
     FM261000 VRB03KT P6SM SCT015 OVC120
     FM261400 VRB04KT 3SM -SHRA BR BKN009 OVC020=

USA.gov is the U.S. government's official web portal to all federal, state and local government web resources and services.